Location: Vassar Physics Lab
(41.6843°N, 73.8954°W)
Time: 11:35:39
(UTC-05:00)

CZ-4B DEB - Visible Passes

Search period start: 18 December 2017 00:00
Search period end: 28 December 2017 00:00
Orbit: 842 x 862 km, 99.0° (Epoch: 18 December)

Date Brightness Start Highest point End Pass type
(mag) Time Alt. Az. Time Alt. Az. Time Alt. Az.
18 Dec 6.8 03:41:02 10° NNE 03:41:12 11° NNE 03:41:12 11° NNE visible
18 Dec 6.1 05:22:15 10° N 05:23:14 14° NNW 05:23:14 14° NNW visible
18 Dec 7.2 16:51:55 10° WSW 16:54:23 13° W 16:56:51 10° WNW visible
19 Dec 6.1 05:10:29 10° N 05:11:29 15° N 05:11:29 15° N visible
20 Dec 6.2 04:58:47 10° N 04:59:44 15° N 04:59:44 15° N visible
21 Dec 6.2 04:47:07 10° N 04:48:00 15° N 04:48:00 15° N visible
22 Dec 6.3 04:35:31 10° N 04:36:16 14° N 04:36:16 14° N visible
23 Dec 6.5 04:23:57 10° NNE 04:24:32 13° N 04:24:32 13° N visible
24 Dec 6.6 04:12:25 10° NNE 04:12:49 12° NNE 04:12:49 12° NNE visible
25 Dec 6.7 04:00:56 10° NNE 04:01:07 11° NNE 04:01:07 11° NNE visible
25 Dec 6.3 05:42:53 10° NNW 05:43:08 11° NNW 05:43:08 11° NNW visible
26 Dec 6.2 05:30:59 10° NNW 05:31:26 12° NNW 05:31:26 12° NNW visible
26 Dec 7.5 17:01:51 10° W 17:03:01 11° W 17:04:11 10° WNW visible
27 Dec 6.2 05:19:10 10° N 05:19:44 12° N 05:19:44 12° N visible
